Location: *
(43.0409°N, 0.1694°E)
Time: 11:19:10
(UTC+00:00)

Envisat - Pass Details

Date: 03 October 2023
Orbit: 762 x 764 km, 98.3° (Epoch: 01 December)

Event Time Altitude Azimuth Distance (km) Brightness Sun altitude
Rises 04:25:46 0° 5° (N) 3,242 6.5 -17.7°
Reaches altitude 10° 04:28:13 10° 358° (N) 2,311 5.6 -17.2°
Maximum altitude 04:32:52 38° 291° (WNW) 1,165 3.5 -16.4°
Enters shadow 04:35:12 24° 243° (WSW) 1,531 4.0 -16.0°
